Theta_e
312 312 312 311 312 312 310 310 310 310 308 306 306 306 305 305 306 306 306 307 307 307 308 307 308 307 308 308 308 308 308 308 311 312 315 316 314 311 312 313 314 314 314 314 313 314 313 314 313 311 315 316 312 314 312 315 326 339 341 332 324 324 325 324 321 318 321 323 319 316 316 318 317 314 312 310 315 318 314 316 315 312 310 310 310 310 311 317
310 310 311 311 312 312 312 311 311 311 309 307 307 306 306 305 306 306 306 307 307 307 307 307 307 307 307 307 307 308 308 311 315 314 315 316 313 311 313 313 314 314 314 314 314 314 315 316 312 312 319 317 311 315 317 312 322 340 336 329 331 329 322 321 323 318 316 318 318 317 315 316 316 316 312 312 317 316 315 316 316 318 316 312 312 312 314 319
309 309 310 311 311 311 311 310 311 311 310 309 307 306 306 305 305 305 306 306 307 307 307 307 307 307 307 307 308 308 310 314 317 315 316 316 313 312 313 313 314 315 315 315 315 313 315 315 310 313 321 318 313 318 323 317 317 326 331 332 333 330 321 317 321 321 317 316 319 317 314 315 315 314 312 314 319 316 319 321 317 321 322 318 314 312 316 322
310 310 310 310 310 310 310 310 311 311 310 309 307 307 306 305 306 305 306 306 306 307 307 307 306 307 307 307 308 308 312 314 315 315 316 315 312 312 313 313 314 314 315 314 315 313 313 312 310 316 320 318 321 322 321 317 315 319 326 330 325 322 319 317 319 321 318 315 318 318 314 315 313 312 313 315 318 317 321 322 318 323 325 322 316 311 316 322
311 311 309 309 309 309 310 311 311 311 311 310 308 307 307 306 306 305 306 306 306 306 306 307 306 307 307 307 308 308 314 315 312 313 314 313 312 313 313 312 313 314 315 315 315 313 311 310 313 323 322 319 326 325 317 313 315 317 317 319 319 318 316 318 319 317 316 313 316 318 316 315 312 312 316 316 318 320 320 318 318 321 321 320 316 311 313 317
311 310 310 308 308 309 310 310 311 311 311 311 309 307 307 306 306 306 306 306 306 306 306 306 306 307 307 308 309 309 316 315 311 313 313 313 312 313 313 312 313 313 314 315 314 313 315 315 317 325 324 320 321 319 317 313 314 318 316 315 317 317 315 317 317 315 315 315 317 318 315 314 314 314 315 315 316 318 314 312 313 312 310 313 312 310 314 316
309 309 308 308 308 308 309 310 310 311 312 312 311 309 308 307 306 306 306 306 306 306 306 307 307 307 308 309 310 313 317 316 313 313 313 312 313 313 312 312 313 314 315 315 314 316 320 321 321 323 323 319 316 315 317 315 318 324 319 316 316 315 315 316 316 315 315 316 316 315 313 314 318 316 312 315 317 317 312 305 305 304 305 309 312 311 312 313
309 308 307 307 306 307 308 309 309 311 312 312 311 310 308 308 306 306 306 306 306 306 307 308 308 308 309 309 312 317 317 315 315 315 313 312 313 312 312 313 313 315 315 313 313 316 319 320 318 318 321 318 314 316 316 316 321 324 318 317 317 315 318 317 315 316 315 316 314 313 315 315 317 314 312 318 319 316 312 306 305 306 308 311 317 315 308 308
311 310 309 308 308 307 307 307 307 310 311 311 311 310 309 308 307 306 306 306 306 306 307 309 309 309 310 309 311 315 314 314 316 315 313 312 313 313 312 313 313 315 315 313 312 312 315 318 317 316 318 316 314 316 316 317 319 318 318 320 318 317 320 317 315 318 317 316 313 314 317 315 313 311 314 321 318 312 311 312 312 313 316 316 318 314 306 306
312 311 310 310 310 309 308 307 306 307 308 309 310 309 308 307 307 306 306 306 305 306 307 309 309 310 311 310 310 311 313 317 317 314 313 313 312 312 313 312 314 315 315 314 312 312 314 316 314 313 316 318 315 315 315 316 316 316 320 320 318 320 321 317 316 319 317 316 315 314 318 316 313 313 315 319 313 309 315 317 312 315 320 317 316 312 306 306
313 312 311 310 310 310 309 308 307 307 307 308 309 308 308 307 307 307 306 306 306 306 308 309 310 311 311 312 314 312 314 319 317 313 313 313 312 313 313 313 314 315 315 314 312 312 313 312 310 311 316 315 315 316 314 314 314 315 319 318 320 323 321 317 317 317 315 315 315 314 315 315 313 314 317 316 309 309 320 321 312 315 318 314 316 314 307 305
313 312 312 311 311 310 310 309 309 308 307 307 308 308 307 307 307 307 306 307 307 307 308 310 311 312 310 311 315 314 316 318 316 314 313 313 313 312 313 314 315 315 316 314 312 313 312 312 312 316 317 314 316 317 313 313 313 315 318 318 323 329 322 316 317 316 314 315 316 314 315 317 315 315 317 314 308 308 317 322 315 314 315 314 314 313 308 304
314 313 313 312 311 311 311 310 309 309 307 307 308 308 307 307 306 307 307 307 307 308 309 310 311 312 310 311 314 313 314 316 315 314 313 313 313 313 313 314 315 316 316 314 312 313 313 312 314 317 316 318 319 313 315 317 315 317 317 318 324 328 324 315 313 314 313 315 316 314 317 323 322 318 315 311 309 311 316 319 316 314 314 314 313 313 311 305
314 314 314 313 313 312 312 311 310 309 308 307 308 308 307 307 307 307 307 308 308 308 310 310 312 311 309 312 313 312 313 313 315 315 313 313 313 313 314 314 315 315 314 313 313 313 314 312 313 315 313 317 316 310 322 327 322 320 314 323 327 319 326 323 314 315 313 313 314 314 318 322 324 322 315 309 309 314 319 318 314 313 313 312 312 311 311 306
315 315 314 314 314 313 313 312 311 310 309 308 307 308 308 308 308 308 308 309 309 310 311 311 312 312 313 314 311 312 314 313 317 316 313 314 313 314 315 314 315 314 313 313 314 314 313 313 315 319 314 313 315 317 330 329 329 328 314 326 329 316 330 332 317 316 315 313 312 314 319 319 321 320 313 308 308 312 317 317 312 313 312 311 311 309 310 307
315 315 315 315 314 313 313 312 311 311 310 308 308 309 309 309 310 310 309 310 312 312 311 312 312 312 315 313 311 314 314 314 317 316 314 314 314 315 314 314 314 314 314 312 314 314 313 316 316 315 314 315 322 333 338 328 331 333 318 322 329 319 326 326 316 315 315 314 312 313 320 322 321 318 311 307 308 310 314 315 313 312 310 309 309 308 308 307
316 316 315 315 315 314 313 312 312 311 310 309 309 310 310 310 311 311 311 312 314 313 311 313 310 309 310 310 313 316 314 315 317 316 315 314 315 315 314 314 312 312 314 313 314 315 313 318 315 313 318 321 324 333 333 323 326 331 320 320 327 324 321 322 322 316 311 314 314 314 316 318 319 317 314 311 309 310 315 317 314 311 309 308 307 307 307 307
317 316 316 316 315 315 314 313 312 311 311 309 309 311 311 312 312 312 314 314 312 310 309 311 309 310 311 309 312 315 314 315 316 315 314 314 315 315 314 313 310 312 317 316 315 316 316 320 321 321 324 322 322 326 325 322 328 333 326 324 326 322 318 322 325 316 311 313 315 316 316 316 316 314 316 317 311 312 318 315 312 310 309 308 307 307 307 306
317 317 316 316 316 315 314 313 312 312 311 309 311 313 311 312 313 313 315 313 311 308 309 311 309 311 313 311 313 314 314 314 315 315 314 315 313 313 314 311 313 318 319 319 317 317 320 322 324 324 323 322 321 321 322 322 327 332 333 334 330 323 321 324 326 320 314 313 316 316 316 316 316 314 315 317 312 312 315 312 310 310 308 308 307 306 306 306
318 317 317 316 315 315 314 312 312 312 311 311 314 312 309 314 314 312 315 316 316 311 312 316 312 312 315 315 315 314 314 314 314 315 314 314 313 314 314 311 318 321 318 324 322 315 318 321 324 324 323 322 319 319 320 321 322 325 329 330 327 324 323 324 325 322 314 313 321 319 316 316 315 315 314 315 314 313 314 313 312 311 309 308 308 307 306 306
319 318 317 317 316 315 314 312 312 313 311 312 314 310 310 316 310 309 316 319 315 309 314 318 312 312 314 313 314 313 315 316 314 314 314 313 313 315 316 315 320 321 320 324 320 314 317 321 323 324 320 318 318 318 319 321 320 322 325 323 323 324 323 321 319 318 313 314 322 320 315 316 314 314 312 313 316 316 316 315 314 312 310 309 308 308 307 306
319 319 318 317 316 315 314 313 313 313 311 311 314 312 312 314 310 309 314 316 314 310 312 314 311 314 314 310 313 313 315 320 316 315 314 312 313 315 317 319 321 322 320 319 318 317 320 322 321 319 318 319 319 317 317 319 318 321 324 320 322 324 321 321 318 316 313 314 322 322 316 316 315 313 312 311 313 312 312 313 313 313 312 310 309 308 307 307
320 319 318 318 316 315 314 313 314 313 311 311 312 311 312 314 314 312 312 314 317 314 313 314 313 317 316 312 313 314 317 321 319 317 314 312 314 316 317 319 320 321 319 318 320 321 322 324 320 316 318 319 319 317 315 317 318 320 323 321 323 323 320 322 320 315 313 314 319 320 316 315 314 314 313 312 312 311 311 311 310 310 311 311 310 310 308 308
322 320 319 318 316 316 314 313 314 313 312 311 311 312 315 317 316 314 314 314 317 317 316 313 311 315 318 312 312 316 318 318 318 317 314 313 315 315 316 318 319 320 318 318 320 319 321 321 315 314 318 318 320 319 317 318 321 322 322 320 321 322 320 321 321 318 318 318 317 317 319 322 321 317 316 318 317 314 312 312 311 309 309 309 310 310 309 308
322 321 319 318 316 316 314 314 315 313 312 311 311 312 315 317 315 314 316 315 317 319 314 310 312 314 314 311 313 318 317 317 319 316 312 312 315 315 315 317 318 319 318 316 317 317 318 317 314 317 316 317 320 320 321 322 323 326 325 321 319 321 321 320 319 319 324 328 319 315 324 335 332 324 319 321 323 320 316 315 315 313 310 310 309 309 308 309
322 322 320 318 317 315 314 315 315 313 313 311 309 310 314 317 315 314 317 321 321 319 315 312 313 313 311 312 315 316 315 317 316 313 312 312 313 314 315 315 315 317 317 317 317 317 317 315 319 324 318 317 319 319 321 321 320 326 325 320 318 317 318 319 318 319 326 330 318 313 323 331 328 323 321 324 326 326 323 321 319 316 313 312 310 309 309 309
322 322 321 319 316 315 315 315 314 313 315 314 309 309 314 315 315 313 319 327 323 319 318 314 311 311 312 313 313 312 312 315 314 312 312 312 312 313 315 316 314 315 316 317 318 317 316 315 318 323 322 320 319 320 321 318 322 328 321 318 320 317 319 319 318 320 325 325 318 319 324 324 323 321 321 324 325 324 323 322 320 317 316 314 312 310 310 310
322 322 322 320 316 316 316 315 314 312 315 315 310 310 314 315 314 315 322 328 324 318 318 315 310 310 313 311 310 312 313 314 315 314 311 311 313 313 316 317 316 317 317 317 318 315 316 320 320 319 321 321 321 326 324 317 322 325 316 316 320 319 321 320 319 320 321 320 323 324 321 321 326 326 322 321 322 325 325 323 321 319 318 317 316 315 311 309
321 321 321 320 317 316 316 315 314 313 314 313 310 312 314 313 315 319 324 326 323 317 316 315 312 312 314 312 311 314 315 315 316 314 311 311 312 314 316 317 316 317 314 315 317 315 314 317 317 317 319 320 324 325 319 316 320 317 313 317 320 320 322 323 324 323 323 323 325 326 323 321 324 327 326 322 323 329 328 323 321 319 319 320 322 320 313 309
320 321 321 320 318 316 316 315 315 315 314 312 312 313 314 315 318 322 325 325 323 319 315 313 314 315 315 313 313 314 315 317 316 314 314 314 314 315 314 313 317 320 316 315 319 317 314 312 312 316 318 319 324 318 312 316 318 314 319 326 325 326 326 327 327 324 326 327 323 325 325 322 323 327 329 326 325 329 327 324 324 320 321 324 327 324 314 309
319 320 320 319 318 316 316 315 315 315 314 313 313 313 315 319 321 325 326 322 320 320 315 314 315 315 315 315 315 315 315 318 316 315 316 315 316 318 315 313 318 322 320 319 320 316 314 314 315 317 316 318 323 319 313 314 314 318 330 331 325 329 328 326 329 326 328 328 321 322 321 319 323 325 327 327 325 325 325 326 330 329 328 326 329 327 314 308
317 318 319 318 318 317 316 316 315 315 314 313 313 314 318 320 321 326 325 320 321 322 318 319 317 315 315 315 315 314 315 318 315 315 318 316 316 316 316 316 318 320 319 319 319 317 316 319 319 316 314 317 324 324 318 315 315 321 330 327 323 328 327 325 328 326 328 325 317 318 320 319 321 322 323 324 323 325 325 323 326 329 329 325 326 325 314 306
316 316 317 318 318 317 316 316 316 316 314 312 314 317 319 321 323 325 325 323 324 321 319 321 318 315 315 316 317 315 314 317 316 316 317 317 317 316 316 319 318 319 322 318 316 318 320 319 317 315 316 317 321 321 320 319 319 320 324 326 325 327 331 334 332 324 323 323 316 313 319 322 323 323 321 320 318 322 324 320 318 320 322 322 318 315 311 306
315 315 317 318 317 317 317 316 316 316 313 313 316 317 318 322 324 324 325 325 323 321 320 319 317 315 315 318 319 315 314 318 316 317 318 316 318 318 317 319 316 319 326 320 316 319 320 319 318 317 318 319 317 317 323 324 319 317 321 325 325 328 333 337 335 328 324 327 321 314 319 327 329 324 320 319 321 323 324 320 317 316 316 315 312 309 309 308
314 315 316 317 317 317 316 316 316 316 314 314 317 317 318 322 323 323 324 324 324 324 320 316 317 317 317 320 321 315 315 318 315 317 319 317 318 318 317 317 314 318 324 318 317 319 317 320 323 318 316 318 317 318 324 324 318 317 320 323 324 326 327 323 324 323 322 325 325 320 322 327 326 323 320 322 324 324 323 319 318 319 316 314 314 311 310 310
314 314 315 316 316 317 316 316 316 315 314 315 316 317 318 321 322 322 322 322 323 323 319 318 320 320 319 319 319 316 315 319 317 318 318 317 318 318 317 317 314 315 316 314 319 321 318 321 321 314 315 317 316 319 321 320 319 318 319 323 321 318 320 320 318 315 316 320 324 324 325 324 323 322 320 321 323 322 322 322 321 321 318 317 318 314 312 311
315 314 314 315 316 317 316 315 315 315 315 316 317 317 317 319 322 322 321 321 321 319 319 321 321 321 320 319 319 318 317 319 318 317 319 317 319 319 317 318 316 314 313 313 319 322 320 324 319 313 317 315 311 318 320 316 318 320 322 323 317 314 320 325 324 322 322 324 325 323 323 322 323 322 320 319 320 321 321 322 322 320 320 320 318 314 314 311
315 314 314 314 314 316 316 315 315 315 315 316 316 317 317 317 320 322 321 319 318 318 320 322 321 320 321 320 320 319 316 319 318 317 319 317 318 320 317 317 318 314 313 313 317 321 318 321 320 314 317 315 310 317 320 314 313 319 324 321 319 324 326 324 324 328 328 327 328 326 322 321 320 322 323 321 325 329 323 318 319 319 320 321 318 317 316 312
314 313 313 313 313 315 316 316 315 315 317 317 316 317 317 317 318 321 322 319 318 320 322 322 321 320 321 320 320 318 316 319 318 317 319 317 318 320 316 316 318 315 314 312 316 321 318 319 322 314 313 315 314 316 321 319 314 314 317 316 318 325 325 323 324 325 327 328 329 329 325 323 323 325 326 323 327 332 327 323 322 320 320 319 316 319 321 316
313 314 314 312 312 315 315 314 315 317 318 317 315 315 316 317 317 319 322 320 319 321 321 322 323 323 321 320 320 319 318 318 317 317 319 317 318 320 316 315 318 316 314 312 314 319 318 317 321 316 311 315 319 319 319 320 317 316 318 318 318 319 321 324 323 321 327 331 330 329 325 324 328 327 327 327 328 328 329 330 329 328 324 317 315 320 323 318
313 314 314 313 313 315 315 314 315 318 319 317 315 314 314 316 317 316 317 318 318 319 319 320 324 323 321 319 319 319 318 319 318 318 319 318 317 321 318 316 319 318 314 314 315 316 317 318 321 321 317 318 321 318 315 317 318 318 319 319 318 319 320 322 321 320 325 327 327 328 325 324 329 326 326 332 331 326 325 325 328 334 327 316 316 321 319 316
312 314 314 313 314 315 315 315 315 316 318 318 316 315 314 316 318 317 317 317 318 319 318 319 320 321 321 320 319 320 320 319 318 318 319 318 317 320 319 316 317 317 315 316 316 315 320 324 322 322 320 320 319 313 310 315 317 316 318 318 318 318 320 322 323 323 324 323 322 324 324 324 323 321 324 330 327 322 321 322 327 333 325 317 319 321 314 312
313 314 314 314 314 315 315 317 316 316 317 317 316 316 315 316 317 317 318 318 318 319 320 320 320 320 321 321 319 320 320 319 319 319 319 319 318 318 320 318 316 316 316 317 317 316 320 322 320 321 323 322 320 315 311 312 314 315 318 319 318 317 318 322 325 324 324 323 322 322 323 322 318 318 320 321 321 320 318 319 322 325 324 319 318 318 314 310
312 313 313 313 314 315 316 317 316 316 316 316 316 316 314 315 316 317 318 318 318 319 320 320 321 321 320 321 320 319 320 320 321 319 318 320 320 318 320 321 317 315 316 317 318 316 318 320 320 322 324 325 323 320 317 314 314 318 322 320 318 318 318 321 323 323 324 324 323 323 324 322 318 318 317 316 320 323 321 319 317 319 324 325 321 317 313 309
310 311 311 312 313 314 316 316 315 316 316 316 317 316 315 315 315 316 317 317 317 319 320 320 321 321 320 321 319 318 319 321 322 320 319 321 321 317 318 320 317 314 317 320 319 316 319 321 319 320 323 324 324 324 322 319 316 318 322 319 317 318 319 319 320 322 323 323 323 322 323 320 319 318 317 316 320 323 322 320 318 318 321 324 324 320 312 308
309 310 311 312 313 314 315 314 314 314 315 316 317 316 316 316 315 315 316 317 317 318 320 321 321 321 320 320 320 320 320 320 321 322 321 322 323 320 317 317 316 315 318 323 322 319 320 322 319 319 322 322 324 326 324 321 319 318 320 319 317 317 318 318 320 321 322 322 322 322 321 321 321 320 320 321 323 324 324 323 323 322 321 322 321 316 310 307
308 309 311 313 315 315 315 315 314 314 314 315 316 316 316 316 316 315 314 316 317 317 318 319 319 320 321 320 320 321 321 320 320 322 321 321 322 319 315 313 313 314 316 319 321 318 319 321 320 320 320 319 323 327 323 320 321 320 319 319 317 316 317 318 320 320 320 322 322 321 320 321 321 320 323 325 325 325 326 327 328 327 326 326 321 314 313 311
307 309 310 311 312 313 314 314 313 313 314 314 314 315 316 316 316 316 315 315 316 317 317 318 319 320 321 321 320 321 321 321 321 321 321 320 320 320 317 313 312 312 312 314 316 317 319 321 321 320 320 318 320 323 322 321 320 319 319 319 318 316 316 318 319 319 319 322 322 320 322 323 320 318 321 322 322 324 325 325 324 323 323 322 319 317 319 318
306 307 307 307 308 309 310 310 310 311 313 314 315 315 315 316 316 316 315 315 315 316 317 318 318 319 319 320 321 321 321 321 321 321 320 320 320 321 320 319 315 310 310 312 315 316 318 320 321 320 319 319 319 321 322 322 320 319 319 318 317 317 316 317 317 318 318 320 320 320 323 322 319 319 322 321 321 322 321 321 320 320 322 323 322 320 320 319
304 307 307 306 307 307 306 306 308 309 309 311 313 314 314 315 316 315 315 315 315 316 316 317 318 318 318 319 320 321 320 321 321 321 320 320 320 319 320 323 320 312 309 312 314 314 316 319 321 319 319 320 319 319 321 321 320 320 319 318 317 316 316 316 317 317 318 319 318 319 321 320 318 322 325 325 324 321 319 320 320 320 321 322 321 319 318 319
303 305 306 306 306 307 307 307 308 308 308 308 310 312 314 315 315 315 315 314 315 315 316 317 317 317 318 318 319 320 319 319 320 320 319 319 320 319 318 320 321 317 312 311 313 315 315 318 319 319 320 321 320 320 320 318 318 319 320 319 318 317 316 316 316 317 317 319 319 319 320 319 319 321 323 324 326 323 321 321 321 320 320 319 318 316 316 317
302 303 304 305 307 308 308 308 308 308 309 309 309 310 312 313 313 313 314 315 314 314 315 315 316 316 317 318 318 318 318 318 319 320 321 319 319 321 319 317 318 318 314 312 314 316 315 316 318 319 321 322 321 321 319 317 318 320 320 319 318 316 316 316 316 316 316 317 319 320 319 317 318 320 320 321 323 323 322 322 320 318 318 319 317 316 315 314
Wind_Speed
4 3 3 2 1 2 1 1 2 1 1 1 1 1 1 2 2 2 2 2 2 3 3 4 5 6 7 8 9 9 10 9 7 3 1 1 1 1 1 3 4 6 5 5 6 3 3 5 9 9 4 3 5 2 3 3 3 5 4 4 3 4 4 6 8 7 5 3 5 4 3 7 4 2 1 1 5 4 1 3 2 4 3 3 3 2 6 12
4 4 3 2 1 2 1 2 2 2 2 1 1 2 2 2 2 2 2 3 3 3 4 5 5 6 7 8 9 9 10 8 5 3 2 2 1 1 1 3 4 5 6 6 7 6 4 4 8 8 6 3 3 3 2 2 4 4 3 3 3 6 5 6 8 7 3 2 5 3 2 4 5 4 3 2 2 3 0 3 4 6 5 3 2 4 8 14
4 4 3 3 2 1 1 2 2 3 3 2 1 1 1 2 2 2 2 3 3 4 4 5 6 7 7 8 9 9 9 5 3 2 2 4 3 3 2 3 4 6 7 7 7 6 4 1 3 5 5 4 2 3 4 4 2 2 4 3 5 6 4 4 7 7 4 4 6 4 2 2 3 3 2 3 2 1 4 5 1 4 8 6 4 5 10 14
5 4 4 3 2 2 1 2 2 3 3 2 1 1 1 1 1 2 2 3 3 4 4 5 6 6 7 8 8 8 7 4 1 1 3 5 5 4 3 4 5 6 7 7 6 5 4 2 4 5 4 3 4 4 4 4 1 2 4 3 5 3 1 3 6 6 5 4 6 5 3 1 3 2 2 5 4 4 7 8 8 9 9 8 7 6 10 14
5 4 3 2 2 2 2 2 3 3 3 3 3 2 1 0 1 1 2 2 3 3 4 5 5 6 7 7 7 7 6 5 1 1 3 6 6 4 3 5 6 6 7 7 5 4 4 4 6 7 5 3 5 5 3 3 2 3 1 3 4 3 1 2 5 4 4 4 5 6 5 3 2 1 3 8 6 6 6 7 8 9 8 10 9 9 10 12
5 4 3 2 2 2 2 2 2 3 3 4 3 3 2 1 0 1 2 2 3 3 3 4 4 5 6 6 6 5 4 2 3 0 4 6 6 4 3 4 6 7 7 6 5 4 4 6 7 5 4 3 3 3 1 5 2 3 1 1 2 2 1 1 2 3 5 6 6 5 3 3 3 1 2 7 9 7 4 5 7 7 7 11 11 10 9 10
4 3 2 1 1 1 1 1 1 2 3 4 4 3 3 2 1 0 1 2 2 2 2 3 4 4 5 5 4 5 4 2 3 2 5 6 6 3 3 4 6 7 6 5 6 4 4 7 6 3 4 4 0 2 2 5 4 5 1 2 0 2 2 2 2 2 3 5 5 3 2 3 5 4 1 5 10 5 3 4 3 5 6 11 10 9 9 10
1 1 1 2 3 2 2 1 2 2 2 2 3 4 3 3 1 1 1 2 2 2 1 2 3 3 4 4 2 5 2 3 2 4 7 6 5 3 1 4 6 7 6 8 6 3 3 5 4 4 4 2 3 1 3 3 5 5 2 2 0 1 4 3 3 4 3 1 1 3 2 2 5 3 0 8 10 2 1 2 4 5 8 9 8 7 8 9
2 2 3 3 3 3 3 3 3 2 1 1 2 3 3 3 2 2 1 2 2 1 1 1 2 3 3 3 6 4 3 3 2 5 8 6 5 2 0 4 7 6 6 7 6 3 2 1 3 3 4 2 3 2 3 2 1 1 3 1 1 2 4 3 2 4 3 1 2 2 2 4 2 1 4 9 6 2 3 5 4 6 7 6 6 7 7 8
1 3 3 3 3 3 3 3 3 3 3 2 1 2 3 3 3 3 2 2 2 1 1 1 1 3 2 3 6 1 4 4 2 6 7 6 5 2 1 5 6 6 6 6 6 5 3 4 4 4 6 3 3 2 3 2 2 2 3 2 2 3 4 2 1 3 2 1 1 3 5 4 4 1 5 6 1 4 5 5 2 5 6 6 5 5 8 9
0 1 2 3 3 3 2 2 3 3 4 3 2 3 3 4 4 3 3 2 2 1 1 1 1 2 2 4 6 3 3 4 2 5 6 6 4 2 2 5 5 6 5 6 6 6 4 5 6 4 2 1 2 3 3 1 2 1 2 2 3 6 4 1 0 3 1 1 4 5 3 4 4 1 6 3 2 3 5 5 3 4 5 5 5 5 6 9
2 1 0 2 2 3 3 3 4 4 4 3 3 3 3 4 4 4 3 2 2 2 1 1 2 2 3 4 3 5 3 3 1 3 5 5 4 2 3 4 5 6 3 4 4 5 4 4 7 5 0 2 2 2 1 2 2 1 3 1 5 8 5 2 1 3 1 2 4 5 2 4 3 7 6 1 2 3 4 5 4 5 5 4 5 5 5 9
3 2 0 1 2 3 3 4 5 6 6 4 4 3 3 4 5 4 3 2 2 1 1 1 2 2 3 1 3 5 5 3 2 4 5 5 4 3 2 3 5 6 4 5 4 5 4 3 6 6 2 5 2 1 3 4 3 1 3 2 4 7 5 4 2 0 3 3 3 3 3 6 8 12 6 1 5 5 3 6 5 5 5 5 5 4 6 8
3 2 1 1 2 2 4 5 6 7 7 6 4 2 2 4 4 3 2 2 1 0 1 2 2 3 3 2 4 3 6 5 3 5 6 6 5 4 3 4 5 6 6 7 6 7 5 3 6 7 3 4 2 1 5 6 4 1 1 2 3 2 4 6 2 3 4 2 1 4 3 7 9 11 5 1 6 7 6 8 6 6 5 5 5 5 6 8
3 2 1 1 2 2 4 5 6 7 7 6 4 2 3 3 3 2 1 1 0 2 2 3 3 4 3 3 3 3 6 5 4 6 7 7 6 5 4 4 5 7 7 7 7 8 7 4 6 6 1 2 3 4 4 4 4 3 1 3 3 1 5 9 3 5 4 1 1 4 3 7 8 9 5 1 5 6 7 7 6 7 7 7 6 6 6 7
5 4 3 2 2 3 5 6 6 6 6 5 2 2 2 2 2 2 1 1 3 4 4 4 4 5 2 2 2 3 4 3 5 7 7 7 6 5 6 6 5 6 6 6 6 5 8 7 4 3 0 1 5 5 4 4 4 4 1 3 2 2 3 6 3 3 1 1 0 2 3 5 5 5 5 0 6 5 6 8 8 8 8 7 6 6 7 6
7 6 5 4 3 3 5 6 5 6 6 3 1 1 2 2 2 2 4 6 7 5 5 4 4 4 1 2 2 4 2 4 5 7 8 7 6 7 8 6 5 6 6 5 4 3 7 6 2 1 3 3 3 4 3 2 4 4 2 2 3 3 2 3 4 3 1 2 2 3 4 7 7 6 3 2 6 6 7 10 9 8 7 7 6 7 7 7
8 7 6 5 4 3 5 6 5 6 5 2 1 3 5 4 3 5 8 9 9 7 6 3 4 3 2 3 2 2 1 4 6 9 9 8 7 8 8 5 5 6 6 4 4 3 4 4 2 1 3 3 2 5 3 4 4 3 3 2 2 2 2 4 5 2 2 1 3 3 5 11 13 11 7 5 6 7 10 10 8 8 7 7 7 8 8 8
9 8 7 6 5 4 4 5 5 6 4 1 3 6 7 6 5 5 7 6 5 3 1 3 3 3 3 3 1 2 5 6 7 8 9 9 9 9 9 7 6 6 5 1 2 2 2 3 4 2 1 3 4 7 8 8 6 6 5 4 4 3 3 5 6 5 3 2 4 7 7 10 12 13 11 6 6 7 9 8 7 8 7 7 8 9 9 11
10 9 8 7 6 5 5 5 5 5 4 2 6 7 5 3 3 1 0 1 3 4 2 3 4 3 1 2 1 5 6 5 3 5 8 10 11 11 7 6 6 5 3 3 1 2 3 2 2 5 7 8 9 8 6 5 6 6 5 4 4 3 4 6 4 6 2 3 6 8 8 10 11 13 13 4 5 6 9 9 10 10 9 9 10 11 11 12
11 10 9 7 6 6 6 5 4 4 4 3 6 4 2 3 2 1 3 4 7 5 2 1 1 1 0 1 3 5 4 3 3 3 9 10 12 9 1 3 5 2 1 3 2 2 4 3 7 10 9 6 7 7 6 5 5 5 5 3 2 3 6 7 3 4 1 2 6 4 5 11 11 13 13 3 4 8 10 11 13 13 12 10 11 13 12 9
12 11 10 8 7 7 6 4 4 4 4 4 5 2 1 3 4 2 2 1 7 8 6 2 2 3 3 2 4 3 2 2 2 1 8 8 6 6 1 4 5 3 0 3 3 1 1 4 11 10 4 5 4 5 6 5 4 4 3 2 2 3 5 6 4 5 1 3 4 4 5 9 11 13 13 9 8 10 10 12 14 14 12 11 11 13 11 9
14 12 11 9 8 7 6 5 5 5 6 6 6 3 1 3 5 3 2 1 5 4 4 5 3 4 3 2 5 6 2 3 3 4 8 8 3 4 5 5 5 4 3 4 5 4 3 6 10 6 7 6 4 4 7 5 2 2 3 3 3 3 2 4 4 4 0 3 2 3 5 7 9 11 12 12 10 9 10 13 14 12 12 13 12 10 10 12
17 13 11 11 9 9 7 7 6 6 8 8 10 9 5 5 5 2 1 1 3 4 2 6 5 5 6 4 7 9 2 3 5 5 11 10 4 3 5 5 5 4 4 8 8 6 6 6 3 5 7 7 4 4 6 5 2 3 5 6 5 4 6 6 4 4 3 2 3 3 6 6 7 11 12 8 4 7 10 11 13 12 12 12 11 10 12 12
20 16 13 12 11 11 10 7 7 8 7 7 13 13 8 7 5 3 2 2 3 4 3 3 3 5 9 7 10 9 2 3 4 6 13 13 8 4 3 3 4 5 7 7 5 6 9 5 3 6 5 6 6 4 5 7 3 5 5 10 10 8 7 5 3 5 4 4 4 3 4 6 4 7 11 5 4 7 8 8 13 13 10 10 11 14 12 9
23 19 16 14 13 15 11 6 8 9 7 7 10 11 11 8 5 3 3 3 3 4 1 3 3 6 10 7 8 7 2 4 4 7 14 14 8 5 3 2 2 4 7 5 3 3 5 2 5 6 5 5 5 3 5 7 5 3 5 8 10 7 5 4 0 2 1 4 3 3 1 7 5 6 11 5 4 11 9 9 13 12 10 10 12 12 9 8
24 23 20 17 18 20 12 4 8 10 5 6 8 12 14 10 6 2 3 4 4 3 4 2 1 5 8 7 9 8 2 5 2 6 9 11 6 3 3 5 2 2 4 4 2 3 3 4 4 6 5 5 5 4 6 8 7 4 4 4 6 6 5 4 4 3 4 3 4 2 2 5 6 7 8 3 6 11 11 13 14 12 13 12 11 10 9 9
24 25 24 21 23 24 16 7 11 12 4 1 8 16 15 11 6 2 4 1 4 2 4 1 1 4 3 4 8 6 2 2 4 2 1 7 5 3 2 7 6 6 5 6 5 3 3 7 8 8 5 4 6 5 8 10 5 5 2 5 6 6 5 4 5 3 2 3 5 3 2 4 8 5 4 1 5 9 11 14 14 14 15 11 9 9 10 10
24 26 27 25 25 26 21 13 10 12 8 4 12 20 17 11 5 4 3 3 2 1 2 1 2 1 3 3 5 2 2 2 2 2 2 4 3 4 3 6 6 6 4 4 6 2 1 5 8 8 6 6 4 2 7 11 5 4 5 7 6 5 5 5 4 3 2 2 6 6 5 3 7 4 2 1 3 7 11 12 12 13 12 9 7 8 8 7
22 28 29 27 27 28 24 17 14 11 8 7 14 22 17 7 3 3 3 4 1 0 0 1 2 2 6 8 3 0 2 2 1 1 3 1 2 5 2 3 6 5 1 4 5 3 1 2 2 4 4 5 4 3 1 5 5 5 6 6 6 5 5 4 2 4 2 4 5 7 10 7 6 3 4 4 5 6 8 7 9 11 10 8 7 6 5 5
14 22 28 29 32 32 21 14 21 18 8 9 19 21 13 4 2 5 6 1 1 1 2 1 2 5 10 11 5 2 2 1 1 4 3 1 2 4 1 1 4 4 2 5 5 3 2 2 2 2 2 4 7 5 4 3 4 5 4 5 4 4 4 4 4 4 0 5 3 3 5 7 7 6 4 5 5 5 7 7 10 11 9 7 6 6 4 4
9 13 23 32 33 34 23 12 22 24 11 14 20 12 5 2 1 6 5 2 0 4 5 3 3 6 9 7 5 6 5 1 3 6 5 4 4 5 5 5 5 2 2 7 4 3 2 4 3 2 1 4 6 5 4 4 3 4 4 5 3 2 3 3 3 1 3 7 3 0 1 4 9 8 8 10 11 10 9 10 11 10 9 8 6 5 3 3
9 8 16 29 31 33 29 16 17 23 17 20 17 5 2 5 6 8 8 3 2 2 3 3 3 6 9 6 3 5 3 2 4 4 3 4 5 7 6 5 6 3 2 6 3 0 3 5 2 1 2 3 7 6 3 1 3 5 5 6 4 2 1 3 3 1 5 6 3 1 2 3 6 5 10 16 15 12 10 10 10 9 10 10 6 3 1 3
9 8 9 22 32 34 32 22 18 23 24 22 12 3 4 6 3 7 10 6 1 2 3 4 6 6 7 5 4 6 4 3 6 5 3 5 5 6 6 6 7 3 3 3 3 5 5 6 5 7 3 6 10 9 6 6 5 5 4 5 5 5 5 4 4 4 5 5 4 2 1 4 3 3 7 10 9 8 8 9 8 7 10 8 5 2 2 3
10 10 7 16 29 32 31 26 22 26 26 17 7 6 8 6 3 5 9 5 1 2 3 2 7 6 5 3 2 6 5 3 5 5 4 6 6 7 7 8 11 6 4 5 2 3 5 8 7 3 1 9 12 5 5 8 2 3 3 4 3 5 5 2 3 5 2 3 4 2 4 5 4 6 8 6 7 7 7 8 7 10 11 7 6 4 4 4
9 10 9 14 23 28 29 25 25 30 24 10 5 6 8 8 5 4 6 5 4 4 5 2 4 4 5 3 2 5 2 1 5 5 3 5 5 7 7 7 12 12 9 7 3 2 3 6 5 1 1 5 7 3 4 4 3 2 3 4 4 4 6 3 2 1 3 3 5 2 5 6 3 7 8 6 8 8 7 8 8 11 11 8 8 5 5 5
10 8 9 13 18 24 29 27 29 31 19 7 7 8 6 6 5 4 4 4 4 7 8 4 3 5 6 4 4 6 3 1 4 5 4 3 3 6 8 5 7 15 14 8 3 3 4 4 5 1 2 3 1 3 3 2 3 5 4 6 3 2 2 3 2 2 3 4 5 1 6 6 3 6 4 1 7 10 10 10 9 9 9 9 10 4 4 6
8 4 8 15 18 21 26 30 31 23 9 6 8 8 5 6 5 4 3 2 5 7 8 7 6 6 7 6 5 6 6 4 5 6 4 4 5 7 10 5 4 14 16 8 3 3 4 3 5 1 3 3 3 3 1 4 2 5 4 5 4 2 2 2 3 2 1 3 5 3 5 4 4 5 2 2 8 11 11 10 8 9 9 9 10 4 3 5
5 2 6 11 16 20 25 31 27 12 4 6 8 7 5 6 5 3 4 4 5 7 9 8 6 4 5 6 5 6 8 7 8 7 5 5 5 6 11 9 6 10 14 12 7 3 3 3 4 1 1 1 3 2 4 2 1 3 2 3 2 2 4 3 3 3 3 3 4 4 5 5 6 6 6 9 11 10 8 7 8 10 11 9 8 4 4 6
4 3 3 3 11 21 28 28 17 6 4 6 7 5 3 3 3 3 5 4 3 4 6 8 6 5 5 6 4 4 7 7 7 7 5 6 5 5 8 10 5 5 9 12 9 2 2 4 4 2 3 1 2 5 8 9 6 4 4 5 3 1 2 1 1 2 4 3 2 2 6 8 6 4 7 10 9 9 9 7 8 9 9 8 6 5 5 6
3 4 2 6 15 25 26 16 6 5 5 6 7 6 4 2 3 4 6 3 1 2 2 3 5 4 3 4 4 4 6 6 7 6 4 6 7 5 6 10 9 7 7 8 9 6 4 4 4 2 1 4 5 4 5 8 7 7 8 8 9 6 4 3 3 1 2 3 4 3 6 11 5 4 6 7 6 7 8 7 7 8 8 6 5 5 6 5
3 4 2 10 24 28 18 5 4 5 5 6 6 5 3 1 2 4 6 5 4 3 1 1 4 3 2 4 5 5 6 5 7 8 6 8 11 8 6 8 11 12 10 7 9 8 4 3 3 4 4 6 6 3 2 3 2 3 4 5 7 7 6 6 6 4 3 2 1 4 3 11 4 5 5 5 4 5 4 6 7 9 6 4 5 5 5 5
4 3 2 13 31 29 11 3 6 5 6 6 4 3 3 2 2 4 5 7 6 4 4 4 4 6 6 5 4 5 6 5 6 8 7 7 10 8 5 7 10 12 9 4 4 4 3 2 4 3 2 3 4 3 1 2 2 2 3 2 5 8 8 6 5 4 4 4 3 4 4 10 4 1 3 3 3 4 4 5 7 8 6 4 6 5 5 6
3 2 1 12 32 29 9 5 7 7 8 6 4 4 4 3 5 6 6 8 6 4 5 4 3 5 7 5 5 7 9 6 5 9 7 5 6 3 5 10 10 9 7 4 4 6 4 4 6 3 1 3 4 3 2 1 2 3 4 4 7 10 8 3 1 3 3 8 10 6 8 11 4 3 1 2 4 6 7 6 5 6 7 5 5 5 5 5
2 3 1 7 20 19 8 6 8 7 9 9 7 6 5 3 5 8 9 7 5 4 5 4 3 4 4 3 3 5 8 7 5 5 5 4 4 3 1 9 11 10 6 1 2 6 7 5 7 8 8 9 8 6 6 5 3 2 4 7 8 11 11 6 3 3 6 10 10 7 11 11 2 3 2 3 5 6 7 6 5 7 7 6 5 5 4 4
2 3 2 3 7 8 7 7 7 6 7 10 8 7 9 8 4 6 8 8 6 6 5 2 3 4 3 3 3 4 7 9 5 3 4 5 4 2 1 5 9 9 3 6 5 5 2 2 8 11 13 14 11 5 4 8 7 7 10 11 11 12 14 11 6 7 10 8 5 10 16 16 10 4 4 6 6 6 6 5 6 7 7 6 6 5 4 5
3 4 4 3 3 5 7 7 8 7 7 9 7 6 11 12 5 3 6 8 7 8 5 2 4 5 5 6 7 6 7 8 5 4 5 5 3 3 0 2 4 5 1 4 4 5 2 3 9 12 15 16 11 4 6 10 12 15 15 14 13 13 13 12 12 15 12 5 8 16 15 15 20 14 7 7 7 5 6 7 8 7 6 6 5 4 5 6
4 3 3 2 2 5 7 7 8 10 11 10 6 6 11 13 11 7 5 6 7 8 7 3 6 11 12 12 10 8 8 8 6 7 8 6 3 2 1 0 3 3 3 0 0 4 3 5 7 10 14 18 14 5 7 9 9 12 15 16 16 15 15 17 20 21 14 8 14 18 11 13 24 18 10 11 9 7 8 9 7 6 6 6 5 5 7 7
3 2 2 1 1 3 4 2 2 4 10 11 8 9 11 13 15 12 6 5 5 7 10 9 11 15 15 13 10 8 9 8 7 9 9 8 6 4 3 4 3 3 5 1 2 2 3 5 5 6 9 17 17 7 7 8 7 7 11 15 16 17 20 22 23 23 18 14 18 18 10 15 21 13 8 11 10 9 7 4 3 6 8 8 8 8 8 7
2 2 1 1 0 1 2 2 2 2 3 7 7 10 12 13 16 13 8 9 8 8 12 15 16 16 15 14 12 11 12 12 12 12 11 11 10 7 7 6 2 2 4 4 2 1 3 5 4 3 4 12 15 9 7 9 8 7 8 10 13 17 21 23 21 18 15 15 20 19 14 17 14 5 6 8 7 7 7 5 6 8 8 9 9 8 8 8
7 6 2 1 1 3 3 2 2 1 2 3 3 6 9 12 14 11 9 12 13 11 12 17 20 15 12 14 15 16 17 16 17 17 13 13 11 7 6 5 4 4 5 5 3 3 4 3 1 3 4 11 14 12 9 6 5 6 7 10 15 18 17 16 15 14 14 16 18 16 13 17 11 5 6 7 6 7 9 8 9 10 9 10 9 9 9 10
10 8 5 2 3 5 4 2 3 4 5 4 4 4 6 6 5 5 6 8 12 14 13 16 19 13 9 14 18 20 19 16 14 11 7 8 6 4 4 4 5 7 6 4 2 3 5 4 2 4 7 12 12 9 8 5 3 7 11 17 21 17 11 9 12 16 17 15 13 12 14 19 15 7 7 8 7 8 10 9 10 12 10 9 8 9 11 11
Wind_Direction
157 158 151 147 67 27 49 51 50 33 103 149 152 189 217 217 224 238 254 266 273 298 309 312 325 331 336 341 344 347 345 341 338 328 322 298 311 323 355 13 7 4 9 358 4 13 356 3 357 11 64 55 12 341 12 27 56 56 79 96 147 178 196 186 176 190 170 188 214 226 185 141 166 203 171 59 36 47 15 338 319 315 291 245 258 199 163 161
167 162 146 130 84 47 51 40 38 26 39 75 119 175 192 195 220 241 259 280 286 301 313 317 327 330 336 343 344 347 343 340 342 308 250 218 243 178 90 25 20 15 18 25 30 39 40 342 339 16 49 44 349 344 27 13 55 85 107 102 198 195 201 194 174 184 162 150 185 196 165 158 182 163 143 191 330 12 108 282 339 329 289 261 238 180 171 165
153 141 141 145 147 128 77 40 37 24 29 41 80 149 171 183 220 236 254 274 287 301 309 318 325 330 338 341 345 347 344 351 357 321 200 183 187 164 100 41 30 23 24 31 28 30 51 320 344 36 47 50 358 356 37 9 26 131 108 103 233 210 217 214 178 190 198 150 151 177 161 174 226 158 155 182 168 334 216 225 240 267 249 225 223 182 167 168
140 141 154 158 162 143 69 34 28 16 25 31 25 42 157 173 220 233 255 264 283 297 303 320 324 332 337 338 346 343 352 36 18 337 152 176 173 154 96 50 34 29 25 26 25 25 46 58 44 51 60 42 342 15 46 349 350 106 103 162 224 184 200 215 190 203 200 160 148 158 130 170 241 164 155 146 142 269 244 224 202 215 218 198 214 195 172 173
145 150 161 158 132 113 71 44 28 21 24 23 24 31 53 45 255 230 249 261 282 292 304 321 327 336 337 342 348 338 13 61 274 335 132 162 157 144 89 47 27 28 25 24 20 25 37 42 52 46 52 39 349 26 32 321 64 71 60 188 195 145 100 210 190 187 159 131 118 132 149 183 179 132 154 153 182 237 230 231 216 213 202 184 190 184 175 177
163 162 162 159 130 127 104 72 37 30 32 27 27 30 34 14 289 239 243 261 281 288 309 321 333 341 340 347 345 353 55 86 287 119 142 150 147 141 85 35 20 18 15 25 13 24 36 32 53 48 45 49 6 44 356 308 42 94 1 319 208 185 357 354 165 175 135 121 141 160 178 143 119 262 185 172 215 227 228 256 236 237 212 179 167 167 175 181
172 168 162 128 84 122 106 85 84 56 40 33 23 20 24 24 37 275 244 252 272 283 313 323 341 345 350 353 347 28 73 262 300 153 166 153 152 147 75 18 17 10 9 32 19 52 68 43 68 113 79 64 161 86 335 311 31 89 94 333 208 191 258 338 55 134 118 133 185 184 126 125 170 222 75 212 237 241 281 291 232 225 182 162 156 167 182 184
129 104 99 63 39 38 26 9 65 62 40 38 22 14 11 11 23 8 228 235 266 282 316 333 350 356 0 8 36 31 9 276 311 167 175 166 169 162 68 11 17 14 34 42 26 104 92 54 108 148 84 77 169 104 334 339 32 63 121 253 122 187 275 315 61 73 62 143 191 119 136 224 201 189 19 245 248 262 327 37 100 131 136 154 165 174 181 183
6 36 57 58 44 34 18 10 22 7 4 54 33 7 353 356 355 342 286 243 259 261 351 13 354 14 22 60 79 42 287 292 312 183 177 178 181 181 295 12 17 20 50 43 35 98 99 120 179 175 145 161 136 66 341 54 30 135 149 218 54 357 320 335 83 54 25 311 78 124 252 293 274 255 270 256 241 161 100 74 92 125 139 167 173 180 183 185
7 36 41 37 33 24 16 15 5 338 340 348 11 1 341 343 337 333 322 279 278 286 47 71 13 56 76 83 83 73 282 340 305 195 177 184 185 190 337 13 16 31 52 39 42 58 67 171 178 147 140 128 100 58 348 78 141 158 131 129 71 349 321 28 67 355 1 276 157 186 249 292 332 323 254 270 181 140 103 91 121 142 166 186 182 197 193 197
119 52 38 24 15 2 359 353 334 324 325 321 343 348 333 334 332 332 327 294 296 326 33 79 61 90 88 81 104 193 280 9 310 199 181 186 184 194 18 14 20 46 51 44 50 43 53 155 146 122 128 101 95 31 354 109 115 95 112 143 2 347 319 49 328 293 320 243 175 162 244 294 359 256 236 281 123 150 124 144 188 174 196 204 204 216 205 213
190 178 42 17 359 348 348 335 323 319 313 306 310 320 328 331 329 327 321 297 300 328 16 69 72 112 73 62 142 212 252 4 325 205 193 188 171 162 39 23 33 49 48 59 62 38 49 153 120 87 336 131 119 24 85 114 81 26 71 158 312 358 349 287 281 264 181 196 180 141 295 283 229 227 244 353 136 124 128 178 213 211 225 233 229 234 223 224
199 183 156 6 353 342 335 329 328 327 324 308 290 298 324 328 332 327 309 294 296 343 59 84 75 97 82 39 229 225 244 276 276 207 196 192 166 142 61 50 51 53 67 85 78 43 59 170 117 97 115 106 124 192 101 53 40 325 41 71 323 2 338 296 14 41 161 173 183 142 280 264 238 244 261 75 152 127 157 213 223 227 240 243 238 240 238 232
203 191 171 3 348 338 329 328 329 330 329 318 302 307 338 337 337 330 317 301 295 113 107 104 101 93 89 250 255 260 256 254 238 205 194 194 169 137 92 76 71 71 82 88 79 52 62 134 103 91 94 84 128 113 41 12 22 15 16 46 16 11 285 294 342 139 153 181 164 136 244 267 261 265 284 216 171 158 201 225 223 231 239 239 240 238 242 238
219 211 209 315 329 331 326 326 327 326 323 319 327 357 357 351 348 353 354 294 45 128 122 110 122 101 66 283 272 296 267 243 214 201 191 190 172 142 112 99 92 87 85 83 81 62 56 94 86 70 6 5 65 72 27 355 15 35 335 312 350 164 269 304 288 166 157 338 33 136 229 276 273 274 302 254 184 180 216 233 230 234 236 234 239 235 240 247
242 232 239 261 307 327 326 327 326 322 318 316 341 29 24 22 26 47 104 112 103 115 108 103 116 106 84 280 284 298 265 215 196 191 181 180 170 144 124 110 92 88 91 79 80 63 40 54 71 59 131 45 68 82 46 12 348 360 67 248 268 173 277 315 309 223 201 68 345 202 234 283 278 276 320 151 179 194 234 249 241 234 236 233 235 236 237 246
251 246 246 249 278 309 320 326 328 323 318 310 347 67 65 63 69 92 115 109 104 99 91 108 116 100 99 259 262 278 242 171 178 173 169 162 150 140 128 107 82 82 85 67 56 40 24 36 69 347 50 57 83 95 57 339 290 319 18 237 242 198 219 300 311 293 35 100 219 231 238 257 263 269 300 189 179 190 227 245 243 237 238 235 235 239 238 235
250 251 250 246 257 282 307 315 323 323 313 302 87 101 93 81 86 116 128 118 100 79 71 96 96 82 269 252 215 241 122 142 157 156 157 146 134 134 120 99 92 78 56 35 30 34 16 25 62 26 18 10 61 103 136 225 215 196 188 200 253 242 218 260 284 250 128 99 227 218 243 257 267 274 265 219 183 191 225 242 249 248 241 237 236 236 237 233
247 248 248 248 245 251 284 295 301 311 307 267 129 121 99 74 78 114 131 123 110 102 153 208 142 137 218 248 205 92 92 120 142 151 149 139 131 119 102 87 88 80 69 53 335 17 56 50 61 79 246 234 189 169 189 200 165 160 172 153 178 225 255 235 251 259 196 151 235 225 234 253 264 271 267 238 180 201 240 259 263 254 243 238 237 237 234 232
246 242 241 243 236 237 261 277 285 303 304 179 139 123 104 72 53 24 238 216 202 158 147 218 195 156 139 328 53 109 106 102 117 152 146 145 136 113 81 52 57 59 95 160 233 18 90 118 166 209 220 214 201 190 172 149 126 120 126 134 180 204 269 252 251 285 238 169 247 232 232 256 260 265 268 243 159 218 248 254 255 250 241 236 234 237 233 233
244 238 236 234 225 226 244 265 275 298 297 194 158 131 151 155 118 269 251 264 253 218 207 254 182 193 206 234 181 141 118 66 32 135 151 153 143 132 57 37 82 64 254 159 148 42 82 148 223 228 221 204 191 171 134 118 105 93 125 169 244 212 254 257 242 300 309 176 265 263 245 259 258 262 270 251 169 229 234 235 247 244 239 237 234 239 235 233
242 236 233 227 215 214 226 246 249 276 279 208 182 181 227 171 131 124 145 263 271 238 214 216 14 291 262 217 198 165 68 71 32 216 166 149 142 166 175 82 132 183 246 107 109 42 74 223 240 234 172 99 104 143 141 132 113 94 117 155 255 243 274 283 286 326 4 188 271 303 269 265 264 264 267 256 232 239 233 226 238 240 239 239 234 238 235 228
240 233 228 222 209 200 206 223 231 253 246 209 201 206 196 151 125 93 106 101 296 270 200 196 217 241 239 272 204 171 104 160 177 236 187 149 126 179 140 125 157 143 124 162 161 165 191 246 246 211 137 115 80 102 122 112 113 147 143 159 237 240 267 281 294 329 246 207 282 306 287 276 270 269 264 252 240 247 249 239 241 241 239 242 239 235 228 224
237 231 226 215 200 189 195 215 224 238 234 225 227 214 160 141 147 121 99 75 301 288 233 202 199 196 199 214 185 168 172 191 172 205 186 157 123 151 152 152 149 130 181 194 179 191 221 246 234 139 152 159 128 110 131 139 237 245 196 194 219 222 216 233 285 327 323 338 5 335 304 277 252 257 258 264 281 265 257 254 256 250 239 245 253 246 230 223
236 231 225 209 193 185 188 206 221 224 222 232 234 214 163 146 151 116 82 46 301 292 297 212 198 204 196 172 165 163 139 233 214 193 179 166 143 140 170 149 134 177 200 183 180 233 249 243 116 117 169 164 143 161 171 164 205 280 233 206 215 219 226 249 339 7 349 329 346 12 305 280 270 260 259 281 329 275 259 257 259 256 245 239 247 247 234 222
237 233 225 206 188 180 180 211 228 213 207 235 233 201 172 159 138 116 89 48 294 273 233 183 176 190 187 159 153 136 80 262 238 165 168 173 160 119 146 149 75 197 185 155 179 242 243 214 110 127 166 165 160 206 217 174 156 277 254 208 212 210 218 250 238 63 278 263 302 52 217 276 292 265 262 257 256 265 264 259 259 260 255 236 237 244 233 217
237 236 228 207 188 182 178 202 203 182 189 253 224 183 176 164 139 133 77 34 282 207 136 204 192 163 174 168 156 135 178 249 121 135 163 174 177 70 128 174 107 192 163 121 231 252 173 164 129 129 128 147 178 221 219 170 147 241 261 165 174 183 199 214 170 187 240 262 315 31 132 276 276 258 271 233 225 265 269 262 264 261 256 245 240 242 229 216
239 239 231 212 195 194 197 188 176 173 182 250 178 174 170 159 147 95 86 75 273 131 123 251 141 129 123 159 162 138 215 220 114 183 184 153 176 53 134 196 167 180 174 145 211 269 144 174 190 169 148 181 202 216 189 159 158 246 228 119 133 153 164 138 133 192 290 6 303 292 129 275 268 251 320 2 218 259 262 255 259 257 257 253 245 239 229 221
241 237 232 218 202 203 209 205 186 189 196 148 158 170 160 152 148 60 84 202 259 102 132 123 128 119 65 130 183 126 39 28 115 245 22 122 169 55 158 198 144 161 202 194 217 278 101 198 199 165 168 204 205 230 180 163 182 210 132 96 81 79 83 85 112 141 46 342 252 227 164 253 274 220 111 38 218 242 249 251 255 255 260 262 252 246 235 225
240 235 232 218 201 199 204 214 218 201 188 168 163 161 148 135 126 109 186 214 173 122 129 127 172 172 129 142 198 337 75 21 56 84 47 101 31 35 125 152 93 125 241 301 265 254 314 281 213 156 179 188 134 71 159 154 152 141 109 71 51 37 43 53 53 87 50 285 249 210 181 192 275 255 173 207 214 216 231 250 263 261 267 268 263 264 247 219
244 236 229 213 201 197 193 213 217 200 181 175 162 150 137 89 71 178 204 211 63 147 132 169 185 141 149 156 177 186 130 35 150 139 127 152 78 52 84 116 77 74 5 296 279 287 330 326 262 229 173 126 99 68 26 56 102 107 92 80 65 349 11 25 355 49 167 262 264 241 189 183 241 257 224 247 262 237 218 232 253 258 266 268 267 279 258 196
252 244 229 216 207 200 197 213 207 196 183 162 154 136 121 129 205 213 209 83 80 203 167 176 188 160 162 161 171 174 149 110 176 162 152 150 163 180 192 186 160 97 260 239 254 342 288 239 253 303 219 142 112 84 32 17 48 87 102 109 103 323 353 349 307 55 232 256 261 280 152 210 242 250 248 257 264 250 224 223 240 253 270 269 263 275 264 167
254 257 234 220 212 203 205 215 205 195 175 150 145 107 118 186 204 208 202 174 188 210 141 120 121 145 153 154 186 168 134 174 179 169 156 139 169 206 227 219 184 156 190 200 199 285 278 290 271 184 257 188 152 156 166 199 182 161 149 144 146 152 155 265 271 280 268 270 274 166 158 247 269 260 238 238 245 247 235 232 237 247 262 267 274 284 252 165
257 256 241 223 218 214 211 211 207 193 169 149 147 140 179 205 206 194 210 222 239 25 43 98 104 122 155 173 205 166 151 220 177 148 151 142 163 211 229 232 209 159 98 148 175 182 217 280 216 179 210 187 183 194 170 137 161 186 157 141 162 166 171 216 220 227 263 286 294 280 191 207 216 258 243 235 254 272 260 249 247 254 257 261 283 282 166 185
258 250 248 226 220 217 210 206 204 187 167 154 158 168 186 206 189 197 214 214 196 38 30 72 103 124 192 261 274 183 170 217 177 146 162 170 187 204 198 208 201 170 139 181 216 161 197 261 243 216 210 171 184 202 120 108 143 219 127 119 196 191 160 183 209 183 189 313 298 242 226 218 209 271 270 248 270 285 276 270 264 265 263 259 266 235 175 199
255 251 250 228 220 216 210 203 192 178 166 156 173 184 201 206 180 190 200 180 180 139 107 78 84 128 204 239 255 215 187 121 156 155 194 202 216 211 200 211 197 185 183 185 189 138 174 270 280 331 344 180 188 189 124 140 187 164 140 180 215 176 131 122 258 66 74 272 271 208 248 285 319 283 266 245 265 277 287 284 259 257 268 275 272 241 181 204
241 245 246 232 223 218 213 203 184 174 168 163 190 199 211 215 185 165 184 166 148 139 140 172 178 167 193 200 211 210 191 94 155 172 196 197 239 216 205 231 195 192 201 188 190 199 168 256 286 147 199 262 277 115 79 23 134 129 179 203 171 98 91 108 220 349 41 254 271 246 253 286 313 279 298 321 263 261 258 257 251 263 275 275 276 263 182 205
231 235 259 245 230 219 212 200 182 175 175 177 199 212 202 214 205 160 168 142 128 154 180 205 199 179 184 194 201 185 174 177 174 184 188 184 241 213 188 210 205 199 204 185 198 246 158 231 294 84 187 293 15 115 98 352 73 130 183 187 130 140 212 123 165 211 182 249 280 295 282 273 211 232 274 202 227 238 245 245 247 261 259 255 268 268 186 206
236 236 278 248 227 218 206 192 181 178 207 190 203 220 200 212 213 157 175 188 164 174 199 214 200 177 184 183 172 164 181 189 171 178 189 182 233 215 180 194 211 201 197 179 189 234 129 201 268 328 228 306 33 162 188 214 41 66 105 157 126 147 177 164 159 171 175 226 278 316 318 278 217 202 199 213 222 221 232 243 235 240 241 241 251 237 200 210
225 224 269 200 202 204 193 184 179 192 219 200 207 213 198 213 209 213 231 218 171 169 205 217 187 172 193 178 157 168 191 196 175 183 206 190 220 244 191 187 181 172 181 181 192 185 114 209 240 326 335 188 187 215 195 182 171 154 159 175 187 110 114 163 163 132 141 156 200 291 294 272 239 182 188 212 227 216 211 224 230 233 238 237 227 212 211 211
205 228 233 159 181 183 174 172 189 211 208 213 222 224 230 218 175 219 242 243 234 174 186 209 175 170 186 171 184 188 179 191 184 187 222 207 210 239 207 181 159 137 142 173 199 199 178 199 194 176 223 206 220 244 212 197 188 180 184 190 188 168 138 173 225 206 138 156 179 185 267 269 243 176 201 211 224 225 208 208 236 244 237 236 230 217 216 208
231 242 176 165 177 170 159 172 217 209 218 214 211 209 208 197 144 195 203 196 220 219 172 197 180 172 183 194 211 190 168 190 190 187 215 214 211 224 215 183 161 150 148 170 204 201 154 123 175 200 212 217 236 265 218 218 207 189 199 192 181 174 169 180 207 211 168 205 179 118 261 272 241 167 210 216 218 249 226 198 233 255 242 229 247 240 225 220
249 250 154 173 177 167 155 226 200 206 236 218 198 163 154 191 201 191 185 185 199 200 196 212 189 187 204 201 195 184 183 201 201 201 220 226 224 224 185 165 156 151 155 172 205 191 98 118 198 235 314 304 305 328 14 71 99 203 237 170 169 195 195 182 189 183 164 200 187 122 244 262 263 194 230 238 254 282 276 222 227 261 270 243 245 248 228 221
253 254 296 189 181 171 167 217 197 213 229 224 228 190 178 215 200 191 198 193 189 180 197 218 201 201 209 184 175 195 196 198 211 213 217 230 239 232 161 165 163 165 182 189 179 177 174 187 193 195 306 320 325 326 295 241 172 205 217 187 191 198 185 139 130 147 179 213 191 174 238 247 274 336 296 322 317 299 282 256 228 248 266 256 243 238 223 214
255 232 294 208 189 182 194 210 202 217 217 221 232 200 188 224 204 201 207 197 186 181 198 216 187 186 195 170 176 205 201 204 219 216 218 239 266 320 198 181 179 191 204 103 117 175 182 190 187 188 210 224 225 228 223 197 165 201 206 192 196 190 179 181 192 181 224 225 192 188 240 247 295 6 273 288 307 285 269 263 245 241 249 254 248 234 222 211
237 224 190 209 204 204 221 216 212 223 213 215 224 205 203 217 216 204 204 200 194 192 200 197 149 158 159 164 189 214 213 217 216 191 207 227 239 295 265 189 197 209 178 79 97 149 157 229 206 202 215 221 221 218 155 130 141 204 210 194 196 197 190 191 196 207 220 224 206 217 235 251 266 252 244 267 258 252 268 272 261 256 253 254 250 236 224 216
223 228 196 194 205 211 221 219 214 218 212 207 205 198 208 214 220 204 200 204 195 190 206 207 166 183 181 181 203 220 218 218 210 199 212 218 235 285 10 156 230 249 152 101 134 130 108 247 222 218 231 236 233 200 150 149 168 200 206 196 198 199 190 193 209 219 213 194 236 233 221 244 258 242 219 247 249 245 260 252 245 248 247 242 230 215 226 228
219 231 212 203 172 205 220 218 212 218 219 212 204 211 214 212 213 209 198 207 202 194 207 218 200 205 200 193 202 214 213 213 213 217 223 222 227 283 336 206 231 207 140 37 299 123 152 233 222 218 236 246 246 210 170 178 180 195 202 197 197 194 188 199 216 223 212 193 239 242 201 216 251 250 219 221 224 214 225 231 234 236 237 236 220 214 232 233
232 248 257 272 113 199 214 187 163 216 222 218 215 221 219 214 215 211 184 185 211 203 203 214 217 214 212 205 201 206 208 208 214 219 220 221 215 211 240 251 241 161 131 149 282 142 173 235 224 206 232 249 250 228 181 194 192 195 206 200 195 193 195 205 216 223 220 217 240 250 228 228 249 250 213 211 210 210 227 256 266 251 251 253 246 239 241 235
232 242 205 126 94 192 173 152 98 63 238 231 225 222 219 218 220 215 188 183 198 197 199 213 222 216 213 212 210 218 216 207 216 219 208 211 215 207 218 219 183 137 161 172 202 188 203 230 217 168 219 251 251 233 198 201 199 202 214 208 202 202 204 211 217 219 220 228 240 248 253 255 253 203 186 216 206 214 248 267 255 249 249 252 253 247 240 237
244 285 283 149 215 198 174 187 185 179 240 223 217 236 230 223 223 223 214 202 201 199 196 210 222 221 212 212 213 222 223 214 221 225 209 205 211 201 212 209 145 153 185 173 156 165 190 224 183 134 213 246 243 224 206 203 211 224 225 216 213 211 209 211 214 214 211 218 234 242 250 257 248 165 180 220 201 217 242 244 246 250 239 235 241 241 239 238
235 279 288 235 230 208 187 181 176 200 236 201 173 222 244 250 256 244 235 218 207 209 204 207 219 223 215 215 217 222 226 223 227 232 207 200 211 173 172 180 146 153 168 163 156 160 167 191 207 176 212 244 239 203 174 168 210 239 227 219 219 214 204 206 216 221 216 209 219 227 233 246 247 221 218 224 202 218 234 231 239 251 248 237 234 236 240 239